When you browse on this site, cookies collect data to enhance your experience and personalize the content and advertising you see.
Visit our Privacy Policy to learn more. By continuing to use the site, you agree to this use of cookies and data.
  • In United Kingdom
  • List of Countries
  • For 7 days
  • Water Temperature
  • Satellite Maps
  • Weather Map
  • Weather Widgets
  • user-avatar
    Login

    Hourly Weather Les Herbiers

    Today, 19 April, Friday

    Time Temperature Precipitation Wind Pressure Humidity
    00:00 +13°C° 0 mm 3 mps 752 mmHg 88%
    01:00 +13°C° 0 mm 3 mps 752 mmHg 89%
    02:00 +12°C° 0 mm 3 mps 752 mmHg 90%
    03:00 +13°C° 0 mm 2 mps 752 mmHg 92%
    04:00 +13°C° 0 mm 2 mps 752 mmHg 87%
    05:00 +12°C° 0 mm 2 mps 753 mmHg 83%
    06:00 +12°C° 0 mm 2 mps 753 mmHg 79%
    07:00 +14°C° 0 mm 2 mps 754 mmHg 73%
    08:00 +16°C° 0 mm 2 mps 754 mmHg 68%
    09:00 +18°C° 0 mm 2 mps 754 mmHg 63%
    10:00 +19°C° 0 mm 2 mps 755 mmHg 60%
    11:00 +21°C° 0 mm 2 mps 755 mmHg 57%
    12:00 +23°C° 0 mm 2 mps 755 mmHg 53%
    13:00 +23°C° 0 mm 2 mps 755 mmHg 55%
    14:00 +23°C° 0 mm 2 mps 755 mmHg 56%
    15:00 +24°C° 0 mm 2 mps 755 mmHg 57%
    16:00 +23°C° 0 mm 2 mps 755 mmHg 61%
    17:00 +21°C° 0 mm 2 mps 755 mmHg 66%
    18:00 +21°C° 0 mm 1 mps 755 mmHg 71%
    19:00 +19°C° 0 mm 1 mps 756 mmHg 72%
    20:00 +16°C° 0 mm 1 mps 756 mmHg 73%
    21:00 +15°C° 0 mm 1 mps 757 mmHg 73%
    22:00 +14°C° 0 mm 1 mps 757 mmHg 75%
    23:00 +14°C° 0 mm 1 mps 757 mmHg 78%

    Tomorrow, 20 April, Saturday

    Time Temperature Precipitation Wind Pressure Humidity
    00:00 +13°C° 0 mm 1 mps 757 mmHg 80%
    01:00 +13°C° 0 mm 1 mps 756 mmHg 82%
    02:00 +13°C° 0 mm 1 mps 756 mmHg 84%
    03:00 +13°C° 0 mm 1 mps 756 mmHg 87%
    04:00 +12°C° 0 mm 2 mps 756 mmHg 88%
    05:00 +12°C° 0 mm 2 mps 756 mmHg 90%
    06:00 +12°C° 0 mm 2 mps 756 mmHg 92%
    07:00 +13°C° 0 mm 3 mps 756 mmHg 88%
    08:00 +16°C° 0 mm 3 mps 756 mmHg 84%
    09:00 +18°C° 0 mm 3 mps 756 mmHg 80%
    10:00 +19°C° 0.2 mm 4 mps 756 mmHg 75%
    11:00 +20°C° 0.2 mm 4 mps 756 mmHg 71%
    12:00 +21°C° 0.2 mm 4 mps 755 mmHg 67%
    13:00 +21°C° 0.4 mm 4 mps 755 mmHg 69%
    14:00 +21°C° 0.4 mm 4 mps 754 mmHg 71%
    15:00 +20°C° 0.4 mm 4 mps 754 mmHg 74%
    16:00 +20°C° 0.4 mm 4 mps 754 mmHg 78%
    17:00 +19°C° 0.4 mm 3 mps 754 mmHg 82%
    18:00 +18°C° 0.4 mm 3 mps 753 mmHg 86%
    19:00 +17°C° 0.1 mm 3 mps 754 mmHg 88%
    20:00 +16°C° 0.1 mm 3 mps 754 mmHg 91%
    21:00 +13°C° 0.1 mm 3 mps 754 mmHg 93%
    22:00 +13°C° 0 mm 3 mps 754 mmHg 93%
    23:00 +12°C° 0 mm 3 mps 754 mmHg 92%

    Day after tomorrow, 21 April, Sunday

    Time Temperature Precipitation Wind Pressure Humidity
    00:00 +13°C° 0 mm 2 mps 753 mmHg 92%
    01:00 +12°C° 0 mm 2 mps 753 mmHg 92%
    02:00 +12°C° 0 mm 2 mps 753 mmHg 92%
    03:00 +10°C° 0 mm 2 mps 753 mmHg 92%
    04:00 +10°C° 0 mm 2 mps 752 mmHg 91%
    05:00 +10°C° 0 mm 2 mps 752 mmHg 91%
    06:00 +11°C° 0 mm 1 mps 752 mmHg 90%
    07:00 +14°C° 0 mm 1 mps 752 mmHg 84%
    08:00 +16°C° 0 mm 1 mps 752 mmHg 77%
    09:00 +17°C° 0 mm 0 mps 752 mmHg 71%
    10:00 +20°C° 0.1 mm 1 mps 752 mmHg 68%
    11:00 +20°C° 0.1 mm 2 mps 751 mmHg 65%
    12:00 +20°C° 0.1 mm 2 mps 751 mmHg 62%
    13:00 +20°C° 0.5 mm 2 mps 751 mmHg 64%
    14:00 +20°C° 0.5 mm 3 mps 750 mmHg 66%
    15:00 +20°C° 0.5 mm 3 mps 750 mmHg 68%
    16:00 +19°C° 0.3 mm 3 mps 749 mmHg 73%
    17:00 +18°C° 0.3 mm 2 mps 749 mmHg 78%
    18:00 +17°C° 0.3 mm 2 mps 748 mmHg 82%
    19:00 +16°C° 0 mm 2 mps 748 mmHg 83%
    20:00 +15°C° 0 mm 2 mps 748 mmHg 84%
    21:00 +14°C° 0 mm 2 mps 748 mmHg 86%
    22:00 +13°C° 0 mm 2 mps 747 mmHg 86%
    23:00 +12°C° 0 mm 2 mps 747 mmHg 86%

    22 April, Monday

    Time Temperature Precipitation Wind Pressure Humidity
    00:00 +12°C° 0 mm 1 mps 746 mmHg 86%
    01:00 +11°C° 0.1 mm 1 mps 745 mmHg 87%
    02:00 +11°C° 0.1 mm 1 mps 745 mmHg 88%
    03:00 +10°C° 0.1 mm 0 mps 744 mmHg 89%
    04:00 +10°C° 0 mm 0 mps 744 mmHg 90%
    05:00 +10°C° 0 mm 0 mps 743 mmHg 90%
    06:00 +10°C° 0 mm 0 mps 743 mmHg 91%
    07:00 +13°C° 0.1 mm 1 mps 742 mmHg 87%
    08:00 +15°C° 0.1 mm 1 mps 742 mmHg 83%
    09:00 +17°C° 0.1 mm 2 mps 742 mmHg 79%
    10:00 +18°C° 0.9 mm 2 mps 741 mmHg 76%
    11:00 +19°C° 0.9 mm 2 mps 740 mmHg 73%
    12:00 +19°C° 0.9 mm 2 mps 739 mmHg 69%
    13:00 +20°C° 0.2 mm 2 mps 739 mmHg 67%
    14:00 +20°C° 0.2 mm 2 mps 738 mmHg 65%
    15:00 +20°C° 0.2 mm 2 mps 738 mmHg 63%
    16:00 +19°C° 0.2 mm 2 mps 737 mmHg 69%
    17:00 +18°C° 0.2 mm 2 mps 737 mmHg 75%
    18:00 +17°C° 0.2 mm 2 mps 737 mmHg 81%
    19:00 +15°C° 0 mm 2 mps 736 mmHg 83%
    20:00 +14°C° 0 mm 2 mps 736 mmHg 85%
    21:00 +12°C° 0 mm 3 mps 736 mmHg 87%
    22:00 +12°C° 0 mm 3 mps 736 mmHg 86%
    23:00 +12°C° 0 mm 3 mps 736 mmHg 86%

    23 April, Tuesday

    Time Temperature Precipitation Wind Pressure Humidity
    00:00 +13°C° 0 mm 2 mps 735 mmHg 85%
    01:00 +13°C° 0 mm 2 mps 735 mmHg 84%
    02:00 +13°C° 0 mm 2 mps 735 mmHg 82%
    03:00 +12°C° 0 mm 2 mps 734 mmHg 81%
    04:00 +11°C° 0 mm 3 mps 734 mmHg 83%
    05:00 +11°C° 0 mm 3 mps 734 mmHg 84%
    06:00 +10°C° 0 mm 3 mps 734 mmHg 86%
    07:00 +12°C° 0 mm 4 mps 734 mmHg 83%
    08:00 +13°C° 0 mm 5 mps 734 mmHg 81%
    09:00 +15°C° 0 mm 5 mps 735 mmHg 78%
    10:00 +16°C° 0 mm 5 mps 735 mmHg 75%
    11:00 +17°C° 0 mm 5 mps 735 mmHg 73%
    12:00 +19°C° 0 mm 5 mps 735 mmHg 70%
    13:00 +19°C° 0 mm 5 mps 734 mmHg 70%
    14:00 +19°C° 0 mm 5 mps 734 mmHg 70%
    15:00 +19°C° 0 mm 5 mps 734 mmHg 70%
    16:00 +18°C° 0 mm 4 mps 734 mmHg 74%
    17:00 +17°C° 0 mm 3 mps 735 mmHg 78%
    18:00 +16°C° 0 mm 2 mps 735 mmHg 82%
    19:00 +15°C° 0.4 mm 2 mps 736 mmHg 86%
    20:00 +14°C° 0.4 mm 2 mps 736 mmHg 89%
    21:00 +12°C° 0.4 mm 2 mps 737 mmHg 93%
    22:00 +12°C° 0.4 mm 2 mps 737 mmHg 94%
    23:00 +11°C° 0.4 mm 3 mps 737 mmHg 95%

    24 April, Wednesday

    Time Temperature Precipitation Wind Pressure Humidity
    00:00 +11°C° 0.4 mm 3 mps 738 mmHg 96%
    01:00 +11°C° 0.1 mm 3 mps 738 mmHg 97%
    02:00 +11°C° 0.1 mm 3 mps 738 mmHg 97%
    03:00 +10°C° 0.1 mm 3 mps 738 mmHg 97%
    04:00 +10°C° 0 mm 3 mps 739 mmHg 97%
    05:00 +10°C° 0 mm 3 mps 739 mmHg 97%
    06:00 +10°C° 0 mm 3 mps 740 mmHg 97%
    07:00 +11°C° 0 mm 4 mps 740 mmHg 93%
    08:00 +12°C° 0 mm 5 mps 741 mmHg 89%
    09:00 +12°C° 0 mm 5 mps 741 mmHg 85%
    10:00 +13°C° 0 mm 5 mps 741 mmHg 78%
    11:00 +14°C° 0 mm 5 mps 741 mmHg 71%
    12:00 +15°C° 0 mm 5 mps 742 mmHg 63%
    13:00 +14°C° 0.1 mm 5 mps 742 mmHg 67%
    14:00 +14°C° 0.1 mm 6 mps 742 mmHg 71%
    15:00 +13°C° 0.1 mm 6 mps 742 mmHg 75%
    16:00 +13°C° 0 mm 5 mps 742 mmHg 77%
    17:00 +12°C° 0 mm 5 mps 742 mmHg 80%
    18:00 +11°C° 0 mm 4 mps 742 mmHg 82%
    19:00 +10°C° 0 mm 4 mps 742 mmHg 82%
    20:00 +10°C° 0 mm 4 mps 742 mmHg 83%
    21:00 +8°C° 0 mm 4 mps 742 mmHg 83%
    22:00 +8°C° 0 mm 4 mps 742 mmHg 83%
    23:00 +8°C° 0 mm 4 mps 742 mmHg 82%
    Show more